Location: Newark
(33.9035°S, 18.4112°E)
Time: 01:46:22
(UTC+00:00)

STARLINK-1107 - Pass Details

Date: 18 January 2020
Orbit: 345 x 354 km, 53.0° (Epoch: 17 February)

Event Time Altitude Azimuth Distance (km) Brightness Sun altitude
Exits shadow 01:54:09 - 50° (NE) 2,139 6.7 -21.0°
Enters shadow 02:49:45 -74° 305° (NW) 12,626 10.5 -12.2°
Maximum altitude 03:29:24 49° 48° (NE) 463 3.4 -5.2°
